Regional Weather Roundup
Issued by NWS Upton, NY

Home | Current Version | Previous Version | Text Only | Print | Product List | Glossary On
Versions: 1 2 3 4 5 6 7 8 9 10 11 12 13 14 15 16 17 18 19 20 21 22 23 24 25 26 27 28 29 30 31 32 33 34 35 36 37 38 39 40 41 42 43 44 45 46 47 48
000
ASUS41 KOKX 311904
RWROKX

REGIONAL WEATHER ROUNDUP
NATIONAL WEATHER SERVICE NEW YORK NY
300 PM EDT FRI JUL 31 2015

NOTE: "FAIR" INDICATES FEW OR NO CLOUDS BELOW 12,000 FEET WITH NO
SIGNIFICANT WEATHER AND/OR OBSTRUCTIONS TO VISIBILITY.

NYZ071-072-176-178-NJZ106-104-312000-
NEW YORK CITY METRO AREA


CITY           SKY/WX    TMP DP  RH WIND       PRES   REMARKS
CENTRAL PARK   SUNNY     89  54  30 VRB6      29.86F
LAGUARDIA APRT MOSUNNY   89  54  30 NW13G18   29.82F
KENNEDY INTL   MOSUNNY   92  51  24 W10G21    29.83F
NEWARK/LIBERTY MOSUNNY   92  55  28 W10G22    29.83F HX  90
BRNX BOT. GARD   N/A     88  54  31 NW6       29.85S
TETERBORO      MOSUNNY   88  56  33 W9G17     29.81F
$$

NYZ177-179-078>081-312000-
LONG ISLAND NEW YORK

CITY           SKY/WX    TMP DP  RH WIND       PRES   REMARKS
FARMINGDALE    SUNNY     90  55  30 N10       29.83F
ISLIP          MOSUNNY   88  55  32 W15       29.81F
SHIRLEY        SUNNY     91  54  28 NW13      29.83F
WESTHAMPTON    MOSUNNY   87  59  38 SW13G21   29.83F
MONTAUK POINT    N/A     87  59  38 SW7       29.82F
$$

NYZ052-065-067-312000-
HUDSON VALLEY

CITY           SKY/WX    TMP DP  RH WIND       PRES   REMARKS
WHITE PLAINS   MOSUNNY   86  54  33 W8G20     29.84F
NEWBURGH       SUNNY     86  55  35 NW12G23   29.86S
MONTGOMERY     SUNNY     87  55  33 W6G20     29.84F
POUGHKEEPSIE   MOSUNNY   89  52  28 W12       29.81F
ALBANY         MOSUNNY   84  55  36 NW7       29.82F
$$

NJZ001-105-106-008-010-013-015-019>022-104-312000-
NEW JERSEY

CITY           SKY/WX    TMP DP  RH WIND       PRES   REMARKS
NEWARK/LIBERTY MOSUNNY   92  55  28 W10G22    29.83F HX  90
TETERBORO      MOSUNNY   88  56  33 W9G17     29.81F
CALDWELL       MOSUNNY   89  54  30 NW10G16   29.84F
MORRISTOWN     PTSUNNY   90  57  33 NW6G17    29.85F
SOMERVILLE     MOSUNNY   89  58  34 VRB6      29.83F
SUSSEX         SUNNY     84  53  34 VRB7      29.87F
ANDOVER          N/A     85  54  34 VRB6      29.87F
TRENTON        SUNNY     88  56  33 NW10      29.85F
MILLVILLE      MOSUNNY   88  57  34 W8        29.88F
ATLANTIC CITY  MOSUNNY   88  59  37 W8        29.87F
WRIGHTSTOWN    SUNNY     85  60  41 VRB5      29.83F
TOMS RIVER       N/A     88  55  33 CALM      29.86F
BELMAR         PTSUNNY   90  57  33 NW9       29.86S
$$

PAZ047>061-062-071-312000-
EASTERN PENNSYLVANIA

CITY           SKY/WX    TMP DP  RH WIND       PRES   REMARKS
PHILADELPHIA   MOSUNNY   89  54  30 NW12G18   29.87F
ALLENTOWN      MOSUNNY   86  58  38 W9        29.87F
SCRANTON       SUNNY     85  52  32 VRB3      29.89F
$$

CTZ002-004>006-009-010-012-RIZ004-006-007-MAZ004-011-015-312000-
SOUTHERN NEW ENGLAND
 IN CT

CITY           SKY/WX    TMP DP  RH WIND       PRES   REMARKS
BRADLEY INTL   MOSUNNY   88  56  33 W15       29.79F
HARTFORD       SUNNY     87  55  33 NW13G18   29.79F
DANBURY        MOSUNNY   84  54  35 NW7       29.84F
WTRBRY/OXFORD  MOSUNNY   82  59  44 NW7       29.86F
BRIDGEPORT     SUNNY     86  63  45 SW15      29.81F
MERIDEN        MOSUNNY   88  55  32 W12G18    29.81F
NEW HAVEN      MOSUNNY   83  63  50 SW8       29.81F
CHESTER        FAIR      84  55  37 CALM      29.83S
GROTON         MOSUNNY   82  66  58 SW15      29.80F
WILLIMANTIC    MOSUNNY   88  54  31 W13G18    29.80F

 IN RI

CITY           SKY/WX    TMP DP  RH WIND       PRES   REMARKS
PROVIDENCE     MOSUNNY   87  58  37 W16G22    29.78F
BLOCK ISLAND     N/A     82  66  57 SW14      29.83F
WESTERLY       SUNNY     84  62  47 W13G18    29.81F

 IN MA

CITY           SKY/WX    TMP DP  RH WIND       PRES   REMARKS
BOSTON         MOSUNNY   89  53  29 W16G23    29.75S
WORCESTER      MOSUNNY   81  54  39 W17       29.82F
WESTFIELD      MOSUNNY   86  54  33 NW13      29.80F
PROVINCETOWN   SUNNY     88  59  37 SW12      29.76F
NANTUCKET      SUNNY     82  68  62 SW14      29.80F
$$

ANZ330-335-338-340-345-350-353-355-312000-
COASTAL MARINE OBSERVATIONS


STATION/POSITION TIME  SKY/WX   TEMP    WIND        PRES    VSBY  WAVE
                                AIR SEA DIR/SP/G                  HT/PER
                 (UTC)          (F)     (DEG/KT/KT) (MB)    (MI)  (FT/S)
NY HARB ENTRANCE 1750            78 78  200/  8/ 10 1010.7          2/ 6
4S FIRE IS       NOT AVBL
20S FIRE ISLAND  1750            76 76  260/  8/ 10 1010.9          3/ 7
GREAT SOUTH BAY  1800            79 81  220/ 12/ 14   N/A
23SW MTP         1850            76 75  230/ 10/ 12 1009.6          3/ 7
HUDSON CANYON    NOT AVBL
KINGS POINT      1800            83 69   10/  4/  6 1009.7
EXECUTION ROCKS  1800            83     270/  6/  8   N/A
CENTRAL LI SOUND NOT AVBL
EASTERN LI SOUND 1800            72 69  230/  6/  8   N/A
ROBBINS REEF     1800            85     280/ 11/ 13 1009.4
$$


>>>>>>>>>>>>>>>>>>>>>>>>>>>> KEY <<<<<<<<<<<<<<<<<<<<<<<<<<<
>                                                          <
>     SKY/WX - SKY CONDITION/PRESENT WEATHER               <
>     TMP    - TEMPERATURE IN FAHRENHEIT                   <
>     DP     - DEWPOINT IN FAHRENHEIT                      <
>     RH     - RELATIVE HUMIDITY IN PERCENT                <
>     WIND   - DIRECTION AND SPEED IN MPH                  <
>     PRES   - MEAN SEA LEVEL PRESSURE IN INCHES OF HG     <
>     WCI    - WIND CHILL INDEX                            <
>     VSB    - VISIBILITY IN MILES                         <
>     HX     - HEAT INDEX                                  <
>     TC     - TEMPERATURE IN CELSIUS                      <
>     VRB    - VARIABLE WIND DIRECTION                     <
>                                                          <
>>>>>>>>>>>>>>>>>>>>>>>>>>>> KEY <<<<<<<<<<<<<<<<<<<<<<<<<<<





USA.gov is the U.S. government's official web portal to all federal, state and local government web resources and services.